Regional Weather Roundup
Issued by NWS

Home | Current Version | Previous Version | Text Only | Print | Product List | Glossary Off
Versions: 1 2 3 4 5 6 7 8 9 10 11 12 13 14 15 16 17 18 19 20 21 22 23 24 25 26 27 28 29 30 31 32 33 34 35 36 37 38 39 40 41 42 43 44 45 46 47 48 49 50

332
ASUS43 KLSX 210807
RWRMO

WEATHER SUMMARY FOR MISSOURI
NATIONAL WEATHER SERVICE SPRINGFIELD MO
200 AM CST SAT JAN 21 2017

NOTE: "FAIR" INDICATES FEW OR NO CLOUDS BELOW 12,000 FEET WITH NO
       SIGNIFICANT WEATHER AND/OR OBSTRUCTIONS TO VISIBILITY.
       CURRENT SKY AND/OR WEATHER CONDITIONS ARE NOT AVAILABLE FOR
       CHILLICOTHE AND FARMINGTON.

MOZ001>031-035>038-043-044-053-054-210900-
...NORTHERN AND WESTERN MISSOURI...

CITY           SKY/WX    TMP DP  RH WIND       PRES   REMARKS
KANSAS CTY INT CLOUDY    38  36  92 S10       29.41S
KANSAS C DTWN  PTCLDY    40  39  97 CALM      29.42R FOG
LEE`S SUMMIT   CLEAR     42  39  89 S3        29.42S
ST JOSEPH      FOG       35  32  88 CALM      29.42R VSB 1/4
CHILLICOTHE      N/A     44  44 100 SE5       29.44F
KIRKSVILLE     FOG       45  45 100 S9        29.45F VSB 1/4

$$
MOZ066>068-077>081-088>096-101>105-210900-
...SOUTHWEST MISSOURI...

CITY           SKY/WX    TMP DP  RH WIND       PRES   REMARKS
SPRINGFIELD    CLEAR     51  39  63 S14       29.53S
JOPLIN         CLEAR     55  38  52 S14       29.51R
BRANSON        PTCLDY    57  39  51 S9        29.58S

$$
MOZ032>034-039>042-045>050-055>058-069>072-210900-
...CENTRAL MISSOURI...

CITY           SKY/WX    TMP DP  RH WIND       PRES   REMARKS
COLUMBIA       CLEAR     51  44  77 S15       29.50R
JEFFERSON CITY CLEAR     54  42  64 S6        29.51S
ROLLA          CLEAR     52  43  71 S13       29.54S
SEDALIA        CLEAR     45  38  76 S10       29.47F
WHITEMAN AFB   CLEAR     44  44 100 S9        29.43F
WARRENSBURG    CLEAR     43  37  81 SE5       29.44R
OSAGE BEACH    CLEAR     52  42  69 S9        29.53S

$$
MOZ051-052-059>065-210900-
...EAST CENTRAL MISSOURI...

CITY           SKY/WX    TMP DP  RH WIND       PRES   REMARKS
ST LOUIS INTL  PTCLDY    54  49  83 S7        29.57F
SPIRIT OF STL  CLEAR     48  46  93 CALM      29.55F
ST CHARLES     CLEAR     45  45 100 E6        29.56F FOG

$$
MOZ072>076-082>087-097>100-106>115-210900-
...SOUTH CENTRAL AND SOUTHEAST MISSOURI...

CITY           SKY/WX    TMP DP  RH WIND       PRES   REMARKS
CAPE GIRARDEAU CLOUDY    53  49  86 CALM      29.65F
FARMINGTON     CLEAR     50  48  93 S6        29.62F
POPLAR BLUFF   MOCLDY    47  47 100 CALM      29.65S
WEST PLAINS    CLEAR     53  45  74 S7        29.61F

$$



USA.gov is the U.S. government's official web portal to all federal, state and local government web resources and services.